GEOFB FWCL-FWKI

Flight info

Callsign GEOFB
Flight time 0h 27m
Altitude 26000
Route XUBOS1A TETEM TETEM1A
Aircraft C750/M-SBDE3FGHRWXY/S

Departure

Time 2026-05-07 15:30
Airport Chileka International Airport (FWCL)

Arrival

Time 2026-05-07 15:58
Airport Kamuzu International Airport (FWKI)
Time Latitude Longitude Altitude Speed Heading
2026-05-07 15:25 -15.68093 34.97384 2525 ft 0 kts 186°
2026-05-07 15:27 -15.68095 34.97382 2530 ft 1 kts 204°
2026-05-07 15:28 -15.68086 34.97364 2528 ft 5 kts 15°
2026-05-07 15:28 -15.68076 34.97424 2527 ft 15 kts 103°
2026-05-07 15:28 -15.68085 34.97466 2534 ft 0 kts 99°
2026-05-07 15:28 -15.68050 34.97525 2530 ft 14 kts 359°
2026-05-07 15:29 -15.67944 34.97439 2522 ft 32 kts 320°
2026-05-07 15:29 -15.67591 34.97135 2503 ft 102 kts 319°
2026-05-07 15:29 -15.66937 34.96573 2548 ft 130 kts 321°
2026-05-07 15:29 -15.66200 34.95947 2731 ft 143 kts 323°
2026-05-07 15:30 -15.65346 34.95277 2797 ft 166 kts 330°
2026-05-07 15:30 -15.64260 34.94662 2889 ft 193 kts 333°
2026-05-07 15:30 -15.63035 34.93904 3020 ft 217 kts 329°
2026-05-07 15:30 -15.61703 34.93019 3210 ft 234 kts 328°
2026-05-07 15:31 -15.60338 34.92116 3797 ft 232 kts 329°
2026-05-07 15:31 -15.59054 34.91272 4238 ft 236 kts 329°
2026-05-07 15:31 -15.57657 34.90364 4822 ft 235 kts 328°
2026-05-07 15:31 -15.56289 34.89472 5351 ft 238 kts 329°
2026-05-07 15:32 -15.54878 34.88549 5919 ft 240 kts 329°
2026-05-07 15:32 -15.53465 34.87626 6502 ft 242 kts 329°
2026-05-07 15:32 -15.52058 34.86706 7116 ft 243 kts 328°
2026-05-07 15:32 -15.50623 34.85768 7761 ft 245 kts 328°
2026-05-07 15:33 -15.49220 34.84852 8335 ft 258 kts 328°
2026-05-07 15:33 -15.47660 34.83832 8856 ft 286 kts 328°
2026-05-07 15:33 -15.45978 34.82732 9867 ft 290 kts 328°
2026-05-07 15:33 -15.44263 34.81614 10857 ft 298 kts 328°
2026-05-07 15:34 -15.42435 34.80423 11227 ft 323 kts 328°
2026-05-07 15:34 -15.40454 34.79130 11425 ft 351 kts 328°
2026-05-07 15:34 -15.38353 34.77757 12083 ft 358 kts 328°
2026-05-07 15:34 -15.36275 34.76399 12969 ft 360 kts 328°
2026-05-07 15:35 -15.34141 34.75008 13741 ft 364 kts 328°
2026-05-07 15:35 -15.31990 34.73607 14502 ft 367 kts 328°
2026-05-07 15:35 -15.29817 34.72190 15253 ft 371 kts 328°
2026-05-07 15:35 -15.27623 34.70758 15983 ft 374 kts 328°
2026-05-07 15:36 -15.25413 34.69319 16713 ft 378 kts 328°
2026-05-07 15:36 -15.23197 34.67877 17464 ft 381 kts 328°
2026-05-07 15:36 -15.20921 34.66395 18198 ft 385 kts 328°
2026-05-07 15:36 -15.18643 34.64912 18936 ft 389 kts 328°
2026-05-07 15:37 -15.16362 34.63427 19647 ft 395 kts 328°
2026-05-07 15:37 -15.14032 34.61910 20389 ft 399 kts 328°
2026-05-07 15:37 -15.11663 34.60369 21094 ft 404 kts 328°
2026-05-07 15:37 -15.09272 34.58815 21812 ft 408 kts 328°
2026-05-07 15:38 -15.06854 34.57242 22491 ft 413 kts 328°
2026-05-07 15:38 -15.04413 34.55654 23133 ft 418 kts 328°
2026-05-07 15:38 -15.01964 34.54064 23773 ft 423 kts 328°
2026-05-07 15:38 -14.99461 34.52439 24409 ft 427 kts 328°
2026-05-07 15:39 -14.96934 34.50798 25034 ft 432 kts 328°
2026-05-07 15:39 -14.94389 34.49144 25708 ft 429 kts 328°
2026-05-07 15:39 -14.91852 34.47496 25988 ft 442 kts 327°
2026-05-07 15:39 -14.89178 34.45762 25989 ft 460 kts 327°
2026-05-07 15:40 -14.86425 34.43976 25996 ft 476 kts 327°
2026-05-07 15:40 -14.83569 34.42124 26008 ft 491 kts 327°
2026-05-07 15:40 -14.80642 34.40225 26011 ft 503 kts 327°
2026-05-07 15:40 -14.77703 34.38320 26007 ft 490 kts 328°
2026-05-07 15:41 -14.74852 34.36475 26008 ft 493 kts 328°
2026-05-07 15:41 -14.72025 34.34440 25993 ft 497 kts 321°
2026-05-07 15:41 -14.69496 34.31995 25999 ft 499 kts 314°
2026-05-07 15:41 -14.67136 34.29358 26010 ft 501 kts 313°
2026-05-07 15:42 -14.64757 34.26729 26016 ft 501 kts 313°
2026-05-07 15:42 -14.62362 34.24103 26019 ft 502 kts 313°
2026-05-07 15:42 -14.59980 34.21473 26022 ft 502 kts 313°
2026-05-07 15:42 -14.57604 34.18833 26021 ft 502 kts 313°
2026-05-07 15:43 -14.55222 34.16199 26022 ft 502 kts 313°
2026-05-07 15:43 -14.52865 34.13605 26021 ft 502 kts 313°
2026-05-07 15:43 -14.50481 34.10979 25943 ft 494 kts 313°
2026-05-07 15:43 -14.48218 34.08477 25316 ft 460 kts 313°
2026-05-07 15:44 -14.46100 34.06137 24731 ft 434 kts 314°
2026-05-07 15:44 -14.44077 34.03908 24173 ft 422 kts 314°
2026-05-07 15:44 -14.42066 34.01695 23617 ft 423 kts 314°
2026-05-07 15:44 -14.40056 33.99481 23068 ft 421 kts 314°
2026-05-07 15:45 -14.38060 33.97280 22509 ft 418 kts 314°
2026-05-07 15:45 -14.36110 33.95131 21959 ft 414 kts 314°
2026-05-07 15:45 -14.34155 33.92978 21416 ft 410 kts 314°
2026-05-07 15:45 -14.32215 33.90844 20880 ft 406 kts 314°
2026-05-07 15:46 -14.28382 33.86626 19818 ft 399 kts 314°
2026-05-07 15:46 -14.26493 33.84549 19292 ft 396 kts 314°
2026-05-07 15:46 -14.24625 33.82495 18770 ft 391 kts 314°
2026-05-07 15:47 -14.22774 33.80460 18252 ft 388 kts 314°
2026-05-07 15:47 -14.20934 33.78437 17739 ft 384 kts 314°
2026-05-07 15:47 -14.19135 33.76460 17228 ft 382 kts 314°
2026-05-07 15:47 -14.17320 33.74468 16739 ft 381 kts 314°
2026-05-07 15:48 -14.15513 33.72484 16227 ft 378 kts 314°
2026-05-07 15:48 -14.13718 33.70511 15730 ft 377 kts 314°
2026-05-07 15:48 -14.11895 33.68593 15215 ft 373 kts 319°
2026-05-07 15:48 -14.09705 33.67184 14717 ft 372 kts 335°
2026-05-07 15:49 -14.07265 33.66329 14250 ft 370 kts 343°
2026-05-07 15:49 -14.04801 33.65571 13795 ft 369 kts 343°
2026-05-07 15:49 -14.02390 33.64814 13348 ft 367 kts 342°
2026-05-07 15:49 -13.99953 33.64035 12901 ft 365 kts 342°
2026-05-07 15:50 -13.97534 33.63267 12463 ft 363 kts 343°
2026-05-07 15:50 -13.95119 33.62510 12023 ft 361 kts 343°
2026-05-07 15:50 -13.92718 33.61756 11588 ft 360 kts 343°
2026-05-07 15:50 -13.90366 33.61012 11169 ft 343 kts 343°
2026-05-07 15:51 -13.88171 33.60318 10850 ft 317 kts 343°
2026-05-07 15:51 -13.86128 33.59675 10550 ft 299 kts 343°
2026-05-07 15:51 -13.84183 33.59063 10238 ft 295 kts 343°
2026-05-07 15:51 -13.82228 33.58448 9888 ft 287 kts 343°
2026-05-07 15:52 -13.80420 33.57875 9587 ft 258 kts 343°
2026-05-07 15:52 -13.78757 33.57350 9351 ft 244 kts 344°
2026-05-07 15:52 -13.77140 33.56850 9087 ft 243 kts 345°
2026-05-07 15:52 -13.75470 33.56826 8751 ft 242 kts 16°
2026-05-07 15:53 -13.74042 33.57679 8454 ft 240 kts 45°
2026-05-07 15:53 -13.73220 33.59151 8139 ft 239 kts 74°
2026-05-07 15:53 -13.72900 33.60797 7865 ft 236 kts 80°
2026-05-07 15:53 -13.72633 33.62368 7503 ft 205 kts 80°
2026-05-07 15:54 -13.72390 33.63712 7226 ft 185 kts 80°
2026-05-07 15:54 -13.72149 33.65030 6958 ft 188 kts 80°
2026-05-07 15:54 -13.71908 33.66355 6684 ft 189 kts 80°
2026-05-07 15:54 -13.71668 33.67684 6411 ft 189 kts 80°
2026-05-07 15:55 -13.71747 33.69009 6112 ft 187 kts 109°
2026-05-07 15:55 -13.72452 33.70101 6155 ft 186 kts 130°
2026-05-07 15:55 -13.73281 33.71127 6069 ft 191 kts 129°
2026-05-07 15:55 -13.74119 33.72187 5549 ft 191 kts 129°
2026-05-07 15:56 -13.74916 33.73164 4921 ft 161 kts 129°
2026-05-07 15:56 -13.75569 33.73967 4722 ft 133 kts 128°
2026-05-07 15:56 -13.76148 33.74679 4588 ft 129 kts 128°
2026-05-07 15:56 -13.76723 33.75385 4421 ft 128 kts 128°
2026-05-07 15:57 -13.77296 33.76095 4257 ft 129 kts 128°
2026-05-07 15:57 -13.77869 33.76801 4092 ft 130 kts 128°
2026-05-07 15:57 -13.78410 33.77477 4030 ft 112 kts 129°
2026-05-07 15:57 -13.78870 33.78022 4028 ft 92 kts 136°
2026-05-07 15:58 -13.79311 33.78394 4029 ft 71 kts 141°
2026-05-07 15:58 -13.79605 33.78628 4028 ft 6 kts 108°
2026-05-07 15:58 -13.79609 33.78626 4028 ft 0 kts 176°
2026-05-07 16:00 -13.79644 33.79015 4028 ft 379 kts 303°
2026-05-07 16:01 -13.78691 33.78352 4030 ft 0 kts 46°
2026-05-07 16:01 -13.78691 33.78353 4030 ft 0 kts 46°